Weather History for St. Petersburg Airport, FL

Change the Weather History Date:

Saturday, December 31, 2005

  Actual Average Record
Temperature  
Mean Temperature 66 °F -  
Max Temperature 78 °F 71 °F 84 °F (2006)
Min Temperature 55 °F 57 °F 33 °F (2000)
Cooling Degree Days 2    
Growing Degree Days 16 (Base 50)    
Moisture  
Dew Point 60 °F    
Average Humidity 83    
Maximum Humidity 94    
Minimum Humidity 58    
Precipitation  
Precipitation 0.00 in - - ()
Sea Level Pressure  
Sea Level Pressure 30.04 in    
Wind  
Wind Speed 5 mph (South)    
Max Wind Speed 12 mph    
Max Gust Speed -    
Visibility 6 miles    
Events      
Averages and records for this station are not official NWS values.
T = Trace of Precipitation, MM = Missing Value Source: NWS Daily Summary

Daily Weather History Graph

Daily Weather History Graph

Search for Another Location

Airport:

Trip Planner

Search our weather history database for the weather conditions in past years. The results will help you decide how hot, cold, wet, or windy it might be!

Date:

Astronomy

Dec. 31, 2005 Rise Set
Actual Time 7:21 AM EST 5:46 PM EST
Civil Twilight 6:56 AM EST 6:11 PM EST
Nautical Twilight 6:26 AM EST 6:41 PM EST
Astronomical Twilight 5:58 AM EST 7:09 PM EST
Moon 8:05 AM EST (12/31) 6:25 PM EST (12/31)
Length of Visible Light 11h 15m
Length of Day
10h 24m
New Moon, 0% of the Moon is Illuminated
Dec 31
New Moon
Jan 6
First Quarter
Jan 14
Full
Jan 22
Last Quarter
Jan 29
New

Hourly Weather History & Observations

Time (EST) Temp. Dew Point Humidity Pressure Visibility Wind Dir Wind Speed Gust Speed Precip Events Conditions
12:53 AM 57.9 °F 54.0 °F 87% 29.99 in 6.0 mi South 5.8 mph - N/A   Clear
1:53 AM 55.9 °F 52.0 °F 87% 29.98 in 5.0 mi South 5.8 mph - N/A   Clear
2:53 AM 59.0 °F 54.0 °F 83% 29.99 in 6.0 mi Calm Calm - N/A   Haze
3:53 AM 59.0 °F 55.0 °F 87% 30.01 in 5.0 mi ENE 3.5 mph - N/A   Partly Cloudy
4:08 AM 57.2 °F 55.4 °F 94% 30.01 in 4.0 mi Calm Calm - N/A   Mostly Cloudy
4:53 AM 60.1 °F 55.9 °F 86% 30.02 in 5.0 mi Calm Calm - N/A   Overcast
5:41 AM 62.6 °F 57.2 °F 82% 30.02 in 4.0 mi East 3.5 mph - N/A   Overcast
5:53 AM 62.1 °F 57.9 °F 86% 30.03 in 5.0 mi Calm Calm - N/A   Overcast
6:53 AM 62.1 °F 57.9 °F 86% 30.02 in 5.0 mi SSE 5.8 mph - N/A   Mostly Cloudy
7:53 AM 63.0 °F 59.0 °F 87% 30.04 in 3.0 mi SE 5.8 mph - N/A   Overcast
8:02 AM 62.6 °F 59.0 °F 88% 30.04 in 3.0 mi SE 6.9 mph - N/A   Overcast
8:07 AM 62.6 °F 60.8 °F 94% 30.04 in 2.5 mi SE 6.9 mph - N/A   Overcast
8:18 AM 64.4 °F 60.8 °F 88% 30.05 in 1.0 mi SSE 5.8 mph - N/A   Overcast
8:46 AM 64.4 °F 60.8 °F 88% 30.05 in 1.0 mi SSE 6.9 mph - N/A   Scattered Clouds
8:53 AM 64.9 °F 61.0 °F 87% 30.06 in 1.0 mi SSE 6.9 mph - N/A   Scattered Clouds
9:06 AM 66.2 °F 62.6 °F 88% 30.06 in 2.0 mi SSE 8.1 mph - N/A   Partly Cloudy
9:33 AM 68.0 °F 62.6 °F 83% 30.07 in 5.0 mi South 5.8 mph - N/A   Haze
9:44 AM 68.0 °F 62.6 °F 83% 30.07 in 6.0 mi South 6.9 mph - N/A   Haze
9:53 AM 69.1 °F 63.0 °F 81% 30.08 in 6.0 mi South 6.9 mph - N/A   Haze
10:53 AM 72.0 °F 64.0 °F 76% 30.08 in 10.0 mi SSE 6.9 mph - N/A   Scattered Clouds
11:09 AM 71.6 °F 64.4 °F 78% 30.07 in 10.0 mi SSE 6.9 mph - N/A   Mostly Cloudy
11:41 AM 73.4 °F 62.6 °F 69% 30.06 in 10.0 mi WSW 4.6 mph - N/A   Mostly Cloudy
11:53 AM 75.0 °F 63.0 °F 66% 30.05 in 10.0 mi Variable 4.6 mph - N/A   Partly Cloudy
12:42 PM 73.4 °F 64.4 °F 73% 30.03 in 10.0 mi NE 6.9 mph - N/A   Mostly Cloudy
12:53 PM 75.0 °F 64.0 °F 69% 30.03 in 10.0 mi ENE 6.9 mph - N/A   Scattered Clouds
1:53 PM 78.1 °F 62.1 °F 58% 30.02 in 10.0 mi WSW 6.9 mph - N/A   Partly Cloudy
2:53 PM 75.9 °F 62.1 °F 62% 30.02 in 10.0 mi SSW 11.5 mph - N/A   Clear
3:53 PM 73.9 °F 62.1 °F 66% 30.02 in 10.0 mi SW 9.2 mph - N/A   Clear
4:53 PM 72.0 °F 63.0 °F 73% 30.02 in 10.0 mi SSW 8.1 mph - N/A   Clear
5:53 PM 68.0 °F 62.1 °F 81% 30.02 in 10.0 mi SSW 8.1 mph - N/A   Clear
6:53 PM 66.9 °F 62.1 °F 84% 30.02 in 10.0 mi South 6.9 mph - N/A   Clear
7:53 PM 66.0 °F 62.1 °F 87% 30.04 in 8.0 mi SSW 4.6 mph - N/A   Clear
8:53 PM 64.0 °F 61.0 °F 90% 30.04 in 4.0 mi WSW 3.5 mph - N/A   Clear
9:18 PM 62.6 °F 60.8 °F 94% 30.03 in 2.0 mi South 4.6 mph - N/A   Clear
9:28 PM 62.6 °F 59.0 °F 88% 30.04 in 4.0 mi SSW 4.6 mph - N/A   Clear
9:53 PM 63.0 °F 60.1 °F 90% 30.04 in 4.0 mi South 4.6 mph - N/A   Clear
10:27 PM 60.8 °F 57.2 °F 88% 30.04 in 4.0 mi South 4.6 mph - N/A   Partly Cloudy
10:53 PM 63.0 °F 60.1 °F 90% 30.05 in 4.0 mi Calm Calm - N/A   Partly Cloudy
11:53 PM 62.1 °F 60.1 °F 93% 30.04 in 3.0 mi SSE 3.5 mph - N/A   Partly Cloudy